| time (UTC) | temp F | wind direction | speed MPH | gust MPH | rain 1hr in | rain 24hr in | rain mn in | humidity % | barometer mb |
| 20260505153017 | 54 | 321 | 4.0 | 10.0 | 0.00 | 0.00 | 0.00 | 37 | 1013.1 |
| 20260505152017 | 55 | 322 | 5.0 | 11.0 | 0.00 | 0.00 | 0.00 | 37 | 1013.0 |
| 20260505151057 | 55 | 321 | 4.0 | 10.0 | 0.00 | 0.00 | 0.00 | 36 | 1013.0 |
| 20260505125017 | 57 | 311 | 2.0 | 6.0 | 0.00 | 0.00 | 0.00 | 34 | 1013.1 |
| 20260505124016 | 56 | 324 | 2.0 | 8.0 | 0.00 | 0.00 | 0.00 | 36 | 1013.1 |
| 20260505123016 | 57 | 324 | 3.0 | 10.0 | 0.00 | 0.00 | 0.00 | 37 | 1013.0 |
| 20260505122016 | 57 | 318 | 3.0 | 9.0 | 0.00 | 0.00 | 0.00 | 38 | 1013.1 |
| 20260505121017 | 57 | 322 | 2.0 | 10.0 | 0.00 | 0.00 | 0.00 | 40 | 1013.1 |
| 20260505120016 | 57 | 325 | 4.0 | 12.0 | 0.00 | 0.00 | 0.00 | 39 | 1013.1 |
| 20260505115017 | 57 | 312 | 3.0 | 9.0 | 0.00 | 0.00 | 0.00 | 42 | 1013.1 |
| 20260505114017 | 57 | 323 | 3.0 | 9.0 | 0.00 | 0.00 | 0.00 | 44 | 1013.1 |
| 20260505113016 | 57 | 313 | 4.0 | 13.0 | 0.00 | 0.00 | 0.00 | 44 | 1013.2 |
| 20260505112017 | 57 | 307 | 3.0 | 8.0 | 0.00 | 0.00 | 0.00 | 45 | 1013.1 |
| 20260505111036 | 57 | 300 | 3.0 | 11.0 | 0.00 | 0.00 | 0.00 | 42 | 1013.1 |
| 20260505102017 | 56 | 324 | 3.0 | 8.0 | 0.00 | 0.00 | 0.00 | 36 | 1012.9 |
| 20260505101037 | 57 | 306 | 2.0 | 8.0 | 0.00 | 0.00 | 0.00 | 33 | 1012.9 |
| 20260505100016 | 56 | 325 | 0.0 | 5.0 | 0.00 | 0.00 | 0.00 | 43 | 1012.9 |
| 20260505095037 | 56 | 255 | 2.0 | 7.0 | 0.00 | 0.00 | 0.00 | 42 | 1012.8 |
| 20260505094016 | 56 | 294 | 1.0 | 4.0 | 0.00 | 0.00 | 0.00 | 45 | 1012.8 |
| 20260505093016 | 56 | 253 | 2.0 | 5.0 | 0.00 | 0.00 | 0.00 | 46 | 1012.9 |
| 20260505092036 | 54 | 234 | 2.0 | 6.0 | 0.00 | 0.00 | 0.00 | 47 | 1012.9 |
| 20260505091016 | 54 | 318 | 2.0 | 8.0 | 0.00 | 0.00 | 0.00 | 49 | 1013.0 |
| 20260505090016 | 54 | 327 | 2.0 | 5.0 | 0.00 | 0.00 | 0.00 | 49 | 1013.0 |
| 20260505085016 | 53 | 314 | 2.0 | 6.0 | 0.00 | 0.00 | 0.00 | 51 | 1013.0 |
| 20260505084037 | 53 | 313 | 3.0 | 8.0 | 0.00 | 0.00 | 0.00 | 52 | 1013.0 |
| 20260505083016 | 52 | 325 | 2.0 | 8.0 | 0.00 | 0.00 | 0.00 | 53 | 1013.1 |
| 20260505082016 | 52 | 308 | 4.0 | 7.0 | 0.00 | 0.00 | 0.00 | 52 | 1013.0 |
| 20260505081017 | 52 | 335 | 1.0 | 5.0 | 0.00 | 0.00 | 0.00 | 55 | 1012.9 |
| 20260505080016 | 52 | 327 | 4.0 | 10.0 | 0.00 | 0.00 | 0.00 | 54 | 1012.8 |
| 20260505075036 | 52 | 319 | 2.0 | 8.0 | 0.00 | 0.00 | 0.00 | 54 | 1012.7 |
| 20260505074016 | 51 | 321 | 2.0 | 5.0 | 0.00 | 0.00 | 0.00 | 55 | 1012.7 |
| 20260505073016 | 51 | 321 | 3.0 | 8.0 | 0.00 | 0.00 | 0.00 | 56 | 1012.7 |
| 20260505072016 | 50 | 326 | 4.0 | 11.0 | 0.00 | 0.00 | 0.00 | 57 | 1012.8 |
| 20260505071016 | 50 | 317 | 2.0 | 9.0 | 0.00 | 0.00 | 0.00 | 58 | 1012.8 |
| 20260505070036 | 50 | 323 | 4.0 | 9.0 | 0.00 | 0.00 | 0.00 | 58 | 1012.8 |
| 20260505065016 | 50 | 322 | 3.0 | 8.0 | 0.00 | 0.00 | 0.00 | 60 | 1012.8 |
| 20260505064016 | 49 | 330 | 3.0 | 9.0 | 0.00 | 0.00 | 0.00 | 61 | 1012.8 |
| 20260505063016 | 48 | 320 | 3.0 | 9.0 | 0.00 | 0.00 | 0.00 | 63 | 1012.8 |
| 20260505062016 | 48 | 319 | 3.0 | 9.0 | 0.00 | 0.00 | 0.00 | 63 | 1012.8 |
| 20260505061036 | 48 | 318 | 3.0 | 8.0 | 0.00 | 0.00 | 0.00 | 65 | 1012.7 |
| 20260505060016 | 48 | 319 | 4.0 | 9.0 | 0.00 | 0.00 | 0.00 | 67 | 1012.7 |
| 20260505055016 | 48 | 319 | 3.0 | 7.0 | 0.00 | 0.00 | 0.00 | 69 | 1012.6 |
| 20260505054036 | 47 | 319 | 3.0 | 8.0 | 0.00 | 0.00 | 0.00 | 72 | 1012.6 |
| 20260505053016 | 46 | 307 | 2.0 | 7.0 | 0.00 | 0.00 | 0.00 | 77 | 1012.5 |
| 20260505052016 | 45 | 300 | 1.0 | 8.0 | 0.00 | 0.00 | 0.00 | 79 | 1012.5 |
| 20260505051016 | 44 | 315 | 3.0 | 9.0 | 0.00 | 0.00 | 0.00 | 82 | 1012.4 |
| 20260505041016 | 43 | 292 | 2.0 | 7.0 | 0.00 | 0.00 | 0.00 | 86 | 1012.0 |
| 20260505040016 | 43 | 292 | 2.0 | 7.0 | 0.00 | 0.00 | 0.00 | 85 | 1012.0 |
| 20260505035016 | 43 | 298 | 1.0 | 8.0 | 0.00 | 0.00 | 0.00 | 85 | 1011.9 |
| 20260505034016 | 43 | 285 | 2.0 | 7.0 | 0.00 | 0.00 | 0.00 | 85 | 1011.9 |
| 20260505033016 | 43 | 289 | 2.0 | 6.0 | 0.00 | 0.00 | 0.00 | 84 | 1011.9 |
| 20260505032016 | 43 | 285 | 2.0 | 7.0 | 0.00 | 0.00 | 0.00 | 84 | 1011.9 |
| 20260505031036 | 44 | 272 | 2.0 | 6.0 | 0.00 | 0.00 | 0.00 | 85 | 1011.8 |
| 20260505030036 | 44 | 263 | 1.0 | 5.0 | 0.00 | 0.00 | 0.00 | 86 | 1011.7 |
| 20260505025016 | 45 | 257 | 3.0 | 7.0 | 0.00 | 0.00 | 0.00 | 86 | 1011.7 |
| 20260505024016 | 45 | 259 | 2.0 | 8.0 | 0.00 | 0.00 | 0.00 | 86 | 1011.7 |
| 20260505023016 | 45 | 261 | 4.0 | 9.0 | 0.00 | 0.00 | 0.00 | 85 | 1011.8 |
| 20260505022016 | 46 | 268 | 3.0 | 8.0 | 0.00 | 0.00 | 0.00 | 86 | 1011.9 |
| 20260505021015 | 46 | 265 | 3.0 | 9.0 | 0.00 | 0.00 | 0.00 | 86 | 1012.0 |
| 20260505020016 | 45 | 271 | 2.0 | 8.0 | 0.00 | 0.00 | 0.00 | 87 | 1012.0 |
| 20260505015016 | 45 | 254 | 2.0 | 6.0 | 0.00 | 0.00 | 0.00 | 86 | 1012.0 |
| 20260505014015 | 45 | 258 | 3.0 | 8.0 | 0.00 | 0.01 | 0.00 | 87 | 1012.0 |
| 20260505013016 | 45 | 251 | 2.0 | 8.0 | 0.00 | 0.01 | 0.00 | 87 | 1011.9 |
| 20260505012015 | 44 | 252 | 3.0 | 11.0 | 0.00 | 0.02 | 0.00 | 87 | 1012.1 |
| 20260505011016 | 44 | 246 | 0.0 | 5.0 | 0.00 | 0.02 | 0.00 | 87 | 1012.2 |
| 20260505010015 | 44 | 249 | 2.0 | 8.0 | 0.00 | 0.02 | 0.00 | 86 | 1012.1 |
| 20260505005015 | 44 | 245 | 2.0 | 5.0 | 0.00 | 0.02 | 0.00 | 85 | 1012.1 |
| 20260505004016 | 45 | 249 | 2.0 | 7.0 | 0.00 | 0.03 | 0.00 | 84 | 1012.2 |
| 20260505003016 | 45 | 255 | 3.0 | 8.0 | 0.00 | 0.03 | 0.00 | 84 | 1012.2 |
| 20260505002015 | 45 | 254 | 4.0 | 10.0 | 0.00 | 0.04 | 0.00 | 84 | 1012.2 |
| 20260505001015 | 45 | 256 | 5.0 | 9.0 | 0.00 | 0.04 | 0.00 | 84 | 1012.2 |
| 20260505000015 | 46 | 257 | 4.0 | 10.0 | 0.00 | 0.04 | 0.00 | 83 | 1012.2 |
| 20260504235016 | 46 | 264 | 3.0 | 12.0 | 0.00 | 0.05 | 0.00 | 83 | 1012.2 |
| 20260504234016 | 46 | 256 | 5.0 | 11.0 | 0.00 | 0.05 | 0.00 | 82 | 1012.2 |
| 20260504233016 | 47 | 259 | 5.0 | 13.0 | 0.00 | 0.05 | 0.00 | 83 | 1012.1 |
| 20260504232016 | 47 | 265 | 4.0 | 10.0 | 0.00 | 0.05 | 0.00 | 83 | 1012.2 |
| 20260504231018 | 47 | 260 | 4.0 | 11.0 | 0.00 | 0.05 | 0.00 | 82 | 1012.3 |
| 20260504230018 | 47 | 256 | 5.0 | 11.0 | 0.00 | 0.05 | 0.00 | 83 | 1012.3 |
| 20260504225038 | 46 | 259 | 4.0 | 11.0 | 0.00 | 0.05 | 0.00 | 82 | 1012.3 |
| 20260504224018 | 46 | 258 | 4.0 | 13.0 | 0.00 | 0.05 | 0.00 | 82 | 1012.4 |
| 20260504223038 | 46 | 265 | 5.0 | 13.0 | 0.00 | 0.06 | 0.00 | 82 | 1012.3 |
| 20260504222018 | 46 | 254 | 5.0 | 10.0 | 0.00 | 0.06 | 0.00 | 83 | 1012.4 |
| 20260504221018 | 46 | 274 | 3.0 | 9.0 | 0.00 | 0.06 | 0.00 | 82 | 1012.4 |
| 20260504220018 | 46 | 252 | 6.0 | 12.0 | 0.00 | 0.07 | 0.00 | 81 | 1012.5 |
| 20260504215018 | 46 | 259 | 4.0 | 11.0 | 0.00 | 0.08 | 0.08 | 82 | 1012.5 |
| 20260504214018 | 47 | 260 | 3.0 | 9.0 | 0.00 | 0.09 | 0.08 | 81 | 1012.5 |
| 20260504213018 | 47 | 261 | 5.0 | 10.0 | 0.00 | 0.09 | 0.08 | 80 | 1012.5 |
| 20260504212018 | 47 | 258 | 4.0 | 9.0 | 0.00 | 0.11 | 0.08 | 79 | 1012.5 |
| 20260504211018 | 47 | 257 | 4.0 | 10.0 | 0.00 | 0.12 | 0.08 | 78 | 1012.5 |
| 20260504210018 | 48 | 264 | 5.0 | 9.0 | 0.00 | 0.13 | 0.08 | 77 | 1012.5 |
| 20260504205018 | 48 | 252 | 6.0 | 14.0 | 0.00 | 0.13 | 0.08 | 76 | 1012.6 |
| 20260504204017 | 48 | 264 | 7.0 | 13.0 | 0.00 | 0.14 | 0.08 | 76 | 1012.6 |
| 20260504203017 | 47 | 271 | 4.0 | 12.0 | 0.00 | 0.14 | 0.08 | 78 | 1012.6 |
| 20260504202017 | 47 | 280 | 4.0 | 12.0 | 0.00 | 0.15 | 0.08 | 78 | 1012.7 |
| 20260504201017 | 47 | 271 | 3.0 | 12.0 | 0.00 | 0.16 | 0.08 | 79 | 1012.7 |
| 20260504200018 | 47 | 271 | 5.0 | 11.0 | 0.00 | 0.16 | 0.08 | 79 | 1012.7 |
| 20260504195037 | 47 | 276 | 4.0 | 9.0 | 0.00 | 0.16 | 0.08 | 79 | 1012.7 |
| 20260504194018 | 47 | 267 | 4.0 | 13.0 | 0.00 | 0.16 | 0.08 | 78 | 1012.7 |
| 20260504193018 | 48 | 270 | 4.0 | 12.0 | 0.00 | 0.16 | 0.08 | 78 | 1012.6 |
| 20260504192037 | 48 | 276 | 5.0 | 11.0 | 0.00 | 0.16 | 0.08 | 76 | 1012.6 |
| 20260504191017 | 48 | 277 | 4.0 | 11.0 | 0.00 | 0.16 | 0.08 | 75 | 1012.4 |
| 20260504190017 | 49 | 266 | 5.0 | 13.0 | 0.00 | 0.16 | 0.08 | 74 | 1012.3 |
| 20260504185018 | 49 | 265 | 6.0 | 12.0 | 0.00 | 0.16 | 0.08 | 73 | 1012.3 |
| 20260504184017 | 49 | 268 | 7.0 | 17.0 | 0.00 | 0.16 | 0.08 | 72 | 1012.2 |
| 20260504183017 | 50 | 265 | 6.0 | 13.0 | 0.00 | 0.16 | 0.08 | 71 | 1012.2 |
| 20260504182017 | 51 | 263 | 7.0 | 13.0 | 0.00 | 0.16 | 0.08 | 70 | 1012.2 |
| 20260504181017 | 51 | 264 | 7.0 | 15.0 | 0.00 | 0.16 | 0.08 | 71 | 1012.1 |
| 20260504180017 | 51 | 256 | 8.0 | 15.0 | 0.00 | 0.16 | 0.08 | 70 | 1012.1 |
| 20260504175017 | 51 | 260 | 8.0 | 17.0 | 0.00 | 0.16 | 0.08 | 69 | 1012.2 |
| 20260504174017 | 51 | 266 | 6.0 | 18.0 | 0.00 | 0.16 | 0.08 | 70 | 1012.2 |
| 20260504173058 | 51 | 279 | 4.0 | 10.0 | 0.00 | 0.16 | 0.08 | 69 | 1012.2 |
| 20260504172017 | 52 | 270 | 6.0 | 13.0 | 0.00 | 0.16 | 0.08 | 69 | 1012.2 |
| 20260504171015 | 53 | 264 | 8.0 | 15.0 | 0.00 | 0.16 | 0.08 | 67 | 1012.1 |